Weather Roundup
Issued by NWS

Home | Current Version | Previous Version | Graphics & Text | Print | Product List | Glossary Off
Versions: 1 2 3 4 5 6 7 8 9 10 11 12 13 14 15 16 17 18 19 20 21 22 23 24 25 26 27 28 29 30 31 32 33 34 35 36 37 38 39 40 41 42 43 44 45 46 47 48 49 50

163
NZUS93 KARX 220210
HRRWXR

CURRENT HOURLY OBSERVATIONS ACROSS
MUCH OF THE UPPER MISSISSIPPI VALLEY
NATIONAL WEATHER SERVICE LA CROSSE WI
900 PM CDT THU SEP 21 2017


...SOUTHEAST MINNESOTA...


CITY           SKY/WX    TMP DP  RH WIND       PRES   REMARKS
ROCHESTER      CLEAR     74  65  73 SE10      29.87R
ROCHESTER/MAYO FAIR      78  64  61 SE13G18   29.87R
WINONA         CLEAR     73  63  68 SE7       29.88R
AUSTIN         PTCLDY    79  68  69 S6        29.86R
ALBERT LEA     CLOUDY    84  72  65 S12G17    29.84R
DODGE CENTER   MOCLDY    75  66  73 SE7       29.86R
PRESTON        CLEAR     75  63  65 S14       29.90R
OWATONNA       PTCLDY    81  70  69 S9        29.83S
FARIBAULT      CLOUDY    79  70  73 SE6       29.82S
$$

...ELSEWHERE IN MINNESOTA...


CITY           SKY/WX    TMP DP  RH WIND       PRES   REMARKS
MINNEAPOLIS    PTCLDY    79  69  71 SE14      29.80R
INTNL FALLS    MOCLDY    64  51  62 SE9       29.82S
DULUTH         CLOUDY    59  55  87 E13       29.91S
RED WING       CLEAR     79  63  57 SE9       29.83R
REDWOOD FALLS  PTCLDY    76  69  79 SE6       29.75R
MANKATO        MOCLDY    80  70  71 S10       29.80R
WORTHINGTON    NOT AVBL
FAIRMONT       CLEAR     77  71  82 SE10      29.80R
$$

...SOUTHWEST WISCONSIN...


CITY           SKY/WX    TMP DP  RH WIND       PRES   REMARKS
LA CROSSE      NOT AVBL
PRAIRIE DU CHI CLEAR     78  63  59 SE6       29.92R
BOSCOBEL       CLEAR     80  65  59 VRB6      29.93R
LONE ROCK      CLEAR     75  66  73 E6        29.95R
PLATTEVILLE    CLEAR     75  67  75 SE9       29.96S
FORT MC COY    PTCLDY    71  64  78 CALM      29.93R
CAMP DOUGLAS   CLEAR     68  66  93 E5        29.94R
MAUSTON-NEW LI CLEAR     69  66  90 CALM      29.94R
VIROQUA        FAIR      74  65  72 CALM      29.95R
WIS DELLS      CLEAR     74  65  72 SE6       29.96S
$$

...ELSEWHERE IN WISCONSIN...


CITY           SKY/WX    TMP DP  RH WIND       PRES   REMARKS
MILWAUKEE      PTCLDY    74  69  85 SE6       30.01R
MADISON        CLOUDY    78  66  66 S6        29.97S
GREEN BAY      CLEAR     69  68  96 E3        30.00R
EAU CLAIRE     PTCLDY    75  66  73 SE9       29.87F
BLACK RVR FLS  FAIR      75  63  67 CALM      29.92R
MEDFORD        CLEAR     69  65  88 SE8       29.97S
WAUSAU         CLEAR     69  66  90 E5        29.97R
WIS RAPIDS     CLEAR     73  66  78 SE7       29.98R
MARSHFIELD     CLEAR     70  63  78 E6        29.96R
RICE LAKE      CLEAR     72  67  85 E8        29.89F
$$

...NORTHEAST IOWA...


CITY           SKY/WX    TMP DP  RH WIND       PRES   REMARKS
WATERLOO       CLEAR     78  67  68 SE14      29.87R
DUBUQUE        CLEAR     74  67  78 S12       29.95S
DECORAH        CLEAR     75  66  73 S9G15     29.90R
MASON CITY     CLEAR     80  69  69 S13       29.86R
CHARLES CITY   CLEAR     79  70  73 SE12G18   29.89R
OELWEIN        CLEAR     77  70  78 SE10      29.92R
$$

...ELSEWHERE IN IOWA...


CITY           SKY/WX    TMP DP  RH WIND       PRES   REMARKS
DES MOINES     PTCLDY    82  69  64 SE13      29.84R
IOWA CITY      CLEAR     78  69  73 SE8       29.93R
FORT DODGE     CLEAR     82  71  69 SE10G17   29.82R
MARSHALLTOWN   CLEAR     79  71  76 SE10      29.87R
CEDAR RAPIDS   CLEAR     77  69  76 SE8       29.91R
$$

...NORTHERN ILLINOIS...


CITY           SKY/WX    TMP DP  RH WIND       PRES   REMARKS
CHICAGO-OHARE  MOCLDY    81  69  67 SE7       30.00R
CHICAGO-MIDWAY MOCLDY    84  71  65 SE5       30.00S
MOLINE         CLEAR     77  69  76 SE6       29.95R
ROCKFORD       MOCLDY    76  68  76 SE5       30.00R
PEORIA         CLOUDY    80  71  74 S3        29.99R
$$

NOTE: "FAIR" INDICATES FEW OR NO CLOUDS BELOW 12,000 FEET WITH NO
SIGNIFICANT WEATHER AND/OR OBSTRUCTIONS TO VISIBILITY. WIND
SPEEDS ARE IN MILES-PER-HOUR.




USA.gov is the U.S. government's official web portal to all federal, state and local government web resources and services.